This is the latest recevied weather packets stored in our database for station/object KV4OP. If no packets are shown the sender has not sent any weather packets the latest 10 day(s).
| Time | Temp. | Humidity | Pressure | Rain* | Wind** | Luminosity | Snow |
|---|---|---|---|---|---|---|---|
| 1777424438 | 22.78° C | 76% | 1018.2 hPa | 0 mm | - | - | - |
| 1777417831 | 26.11° C | 66% | 1018.6 hPa | 0 mm | - | - | - |
| 1777415132 | 27.22° C | 64% | 1018.4 hPa | 0 mm | - | - | - |
| 1777414229 | 29.44° C | 57% | 1018.5 hPa | 0 mm | - | - | - |
| 1777413928 | - | - | 1018.6 hPa | 0 mm | - | - | - |
| 1777412724 | - | - | 1018.2 hPa | 0 mm | - | - | - |
| 1777412120 | 33.33° C | 52% | 1018.3 hPa | 0 mm | - | - | - |
| 1777410921 | 31.11° C | 55% | 1018.5 hPa | 0 mm | - | - | - |
| 1777410318 | 31.67° C | 54% | 1018.5 hPa | 0 mm | - | - | - |
| 1777410019 | 31.67° C | 54% | 1018.7 hPa | 0 mm | - | - | - |
| 1777409719 | 31.67° C | 53% | 1018.5 hPa | 0 mm | - | - | - |
| 1777409419 | 32.22° C | 53% | 1018.6 hPa | 0 mm | - | - | - |
| 1777408517 | 32.22° C | 52% | 1018.8 hPa | 0 mm | - | - | - |
| 1777408217 | 32.22° C | 52% | 1018.7 hPa | 0 mm | - | - | - |
| 1777407917 | 32.22° C | 51% | 1018.9 hPa | 0 mm | - | - | - |
| 1777407618 | 32.22° C | 52% | 1018.9 hPa | 0 mm | - | - | - |
| 1777407319 | 32.22° C | 52% | 1018.9 hPa | 0 mm | - | - | - |
| 1777406715 | 32.78° C | 52% | 1019 hPa | 0 mm | - | - | - |
| 1777405819 | 32.22° C | 54% | 1019.1 hPa | 0 mm | - | - | - |
| 1777404918 | 32.22° C | 53% | 1019.4 hPa | 0 mm | - | - | - |
| 1777404617 | 32.22° C | 52% | 1019.5 hPa | 0 mm | - | - | - |
| 1777404314 | 32.78° C | 52% | 1019.5 hPa | 0 mm | - | - | - |
| 1777404014 | 32.78° C | 54% | 1019.5 hPa | 0 mm | - | - | - |
| 1777403716 | 32.78° C | 51% | 1019.5 hPa | 0 mm | - | - | - |
| 1777403412 | 32.78° C | 50% | 1019.5 hPa | 0 mm | - | - | - |
* Rain latest hour (hover to see other rain measurements)
** Current wind speed in m/s (hover to see current wind gust speed)